This is the latest recevied weather packets stored in our database for station/object N9XRG. If no packets are shown the sender has not sent any weather packets the latest 10 day(s).
| Time | Temp. | Humidity | Pressure | Rain* | Wind** | Luminosity | Snow |
|---|---|---|---|---|---|---|---|
| 1777900074 | 15.56° C | 62% | 1006.3 hPa | 0 mm | - | 361 W/m² | - |
| 1777899770 | 15.56° C | 62% | 1006.1 hPa | 0 mm | - | 328 W/m² | - |
| 1777899467 | 15.56° C | 62% | 1006.4 hPa | 0 mm | - | 303 W/m² | - |
| 1777899164 | 15.56° C | 63% | 1006.5 hPa | 0 mm | - | 297 W/m² | - |
| 1777898862 | 15.56° C | 63% | 1006.7 hPa | 0 mm | - | 285 W/m² | - |
| 1777898559 | 15° C | 67% | 1006.5 hPa | 0 mm | - | 300 W/m² | - |
| 1777898257 | 13.89° C | 69% | 1006.7 hPa | 0 mm | - | 255 W/m² | - |
| 1777897954 | 13.33° C | 69% | 1006.6 hPa | 0 mm | - | 144 W/m² | - |
| 1777897650 | 12.78° C | 71% | 1006.7 hPa | 0 mm | - | 89 W/m² | - |
| 1777897346 | 12.78° C | 71% | 1006.9 hPa | 0 mm | - | 85 W/m² | - |
| 1777897042 | 12.22° C | 72% | 1006.7 hPa | 0 mm | - | 80 W/m² | - |
| 1777896739 | 12.22° C | 72% | 1007 hPa | 0 mm | - | 76 W/m² | - |
| 1777896436 | 11.67° C | 72% | 1006.8 hPa | 0 mm | - | 72 W/m² | - |
| 1777896134 | 11.67° C | 73% | 1006.9 hPa | 0 mm | - | 65 W/m² | - |
| 1777895831 | 11.67° C | 75% | 1006.7 hPa | 0 mm | - | 59 W/m² | - |
| 1777895528 | 11.11° C | 76% | 1006.9 hPa | 0 mm | - | 52 W/m² | - |
| 1777895226 | 11.11° C | 74% | 1006.7 hPa | 0 mm | - | 48 W/m² | - |
| 1777894923 | 11.11° C | 75% | 1006.5 hPa | 0 mm | - | 59 W/m² | - |
| 1777894621 | 10.56° C | 76% | 1006.6 hPa | 0 mm | - | 48 W/m² | - |
| 1777894318 | 10.56° C | 77% | 1006.5 hPa | 0 mm | - | 54 W/m² | - |
| 1777894015 | 10° C | 78% | 1006.7 hPa | 0 mm | - | 39 W/m² | - |
| 1777893711 | 10° C | 78% | 1006.6 hPa | 0 mm | - | 34 W/m² | - |
| 1777893407 | 9.44° C | 80% | 1007 hPa | 0 mm | - | 30 W/m² | - |
| 1777893103 | 9.44° C | 80% | 1006.6 hPa | 0 mm | - | 26 W/m² | - |
| 1777892801 | 9.44° C | 80% | 1006.5 hPa | 0 mm | - | 22 W/m² | - |
* Rain latest hour (hover to see other rain measurements)
** Current wind speed in m/s (hover to see current wind gust speed)